Location: Unspecified
(52.1384°N, 8.6525°W)
Time: 18:48:31
(UTC+00:00)

N. Korean satellite - Pass Details

Date: 05 November 2020
Orbit: 453 x 503 km, 97.2° (Epoch: 04 December)

Event Time Altitude Azimuth Distance (km) Brightness Sun altitude
Rises 18:22:23 0° 213° (SSW) 2,505 10.8 -13.2°
Reaches altitude 10° 18:25:24 10° 242° (WSW) 1,624 10.4 -13.6°
Maximum altitude 18:27:04 13° 271° (W) 1,448 10.3 -13.9°
Drops below altitude 10° 18:28:44 10° 300° (WNW) 1,620 10.0 -14.1°
Sets 18:31:44 0° 330° (NNW) 2,493 10.5 -14.6°
